Location: Unspecified
(47.9110°N, 14.3980°E)
Time: 21:47:40
(UTC+00:00)

ALOS 2 - Pass Details

Date: 06 August 2020
Orbit: 630 x 632 km, 97.9° (Epoch: 22 September)

Event Time Altitude Azimuth Distance (km) Brightness Sun altitude
Exits shadow 23:23:03 25° 280° (W) 1,286 4.2 -25.7°
Drops below altitude 10° 23:26:08 10° 323° (NW) 2,025 5.8 -25.6°
Sets 23:28:40 0° 336° (NNW) 2,938 7.0 -25.6°
